Tracking 26321 objects as of 27-Nov-2022
HD Live streaming from Space Station
objects crossing your sky now

STARLINK-3923

Track STARLINK-3923 now!
10-day predictions
STARLINK-3923 is classified as:


NORAD ID: 52489
Int'l Code: 2022-049AQ
Perigee: 545.1 km
Apogee: 548.6 km
Inclination: 53.2 °
Period: 95.4 minutes
Semi major axis: 6917 km
RCS: Unknown
Launch date: May 6, 2022
Source: United States (US)
Launch site: AIR FORCE EASTERN TEST RANGE (AFETR)
aabbcc
Your satellite tracking list
Your tracking list is empty




NASA's NSSDC Master Catalog

Two Line Element Set (TLE):
1 52489U 22049AQ  22330.67552930  .00002160  00000-0  15369-3 0  9998
2 52489  53.2187  41.7178 0002490  34.2440 325.8712 15.08855904 31249
Source of the keplerian elements: AFSPC